TITAN 3C TRANSTAGE DEB, 38692

Orbit data source: Space-Track

TITAN 3C TRANSTAGE DEB, 38692 is space debris in GEO originally from a launch on Thu, 26 Sep 1968 UTC launched from the Air Force Eastern Test Range (AFETR). Debris objects in space refer to the collection of defunct objects orbiting the Earth. Examples of debris include non-operational satellites, rocket bodies, and fragments generated from explosions, collisions, or faulty payload assembly.

Not visible in the next 10 days
Identifier
38692, 1968-081S
Orbit
GEO
Country
Flag of USUS
Related business
Manufacturer
Unknown
Mission
Spacecraft
Bus & Motor
Unknown
Mass
Unknown
Launch date (UTC)
1968-09-26 (57 years ago)
Launch vehicle
Unknown
Launch site
Air Force Eastern Test Range (AFETR)
Object type
Payload
Rocket body
Debris
Shape & HBR
Unknown shape, 1.1 m
Radar Cross Section
Small (<0.1 m²)

Expand to show TLE details & history
Last TLE update: 10 hours ago

TLE from 10 hours ago
0 TITAN 3C TRANSTAGE DEB
1 38692U 68081S   25292.85769198 -.00000027  00000-0  00000-0 0  9994
2 38692   1.7709   5.2629 0308892 304.6479  52.0414  0.99215840 39007
Epoch: 2025-10-19T20:35Z
TLE epoch observation values (Epoch: 2025-10-19T20:35:04.587Z)
Latitude
-0°
Longitude
27.42628°
Altitude
35,303.169 km
Speed
3.121 km/s
True Right ascension
00h 19m 03s
True Declination
0° 00' 00"
Sunlit
Object was in daylight at epoch
Visualization orbit readout
Latitude
Unknown
Longitude
Unknown
Altitude
Unknown
Speed
Unknown
Apparent Right ascension
Unknown
Apparent Declination
Unknown
Sunlit
N/A
Visualization observer readout
Local Sidereal Time
01:41:36
Azimuth
Unknown
Elevation
Unknown
Doppler factor
Unknown
Orbital elements
Apogee altitude
37,397.993 km
Perigee altitude
34,774.608 km
Semi-major axis
42,464.437 km
Eccentricity
0.03089
Inclination
1.7709°
RAAN
5.2629°
Arg. of periapsis
304.6479°
True anomaly
54.89889°
Mean anomaly
52.0414°
Eccentric anomaly
53.46341°
Mean motion
0.24803 °/min
Orbital period
1,451.43 mins
BSTAR
0
Loading maneuver chart data...
Computing Atmospheric mass density...

Documentation

Showing up to 5 results
|